This demonstration page uses our WeatherBlox Daily Observations layout. Learn more.

Hourly Observations for August 8, 2019

Temp ( °F °C ) Dew Point ( °F °C ) Humidity (%) Winds ( mph kmh ) Pressure ( in mb ) Visibility ( mi km ) Precip ( " mm )
12:15 am 00:15 Clear 73 22.5 70 21.2 92 92 Calm 29.85 1011 10 16.09344 0 0
12:35 am 00:35 Clear 71 21.6 69 20.6 94 94 ENE 5 7 29.85 1011 10 16.09344 0 0
12:55 am 00:55 Clear 70 21 69 20.5 97 97 E 3 6 29.85 1011 10 16.09344 0 0
1:15 am 01:15 Clear 72 22.3 70 21.1 93 93 SSE 5 7 29.85 1011 10 16.09344 0 0
1:35 am 01:35 Clear 71 21.9 70 21 95 95 Calm 29.85 1011 10 16.09344 0 0
1:55 am 01:55 Clear 72 22.3 70 21 92 92 ESE 5 7 29.85 1011 10 16.09344 0 0
2:15 am 02:15 Clear 72 22.3 70 21 92 92 ESE 5 7 29.85 1011 10 16.09344 0 0
2:35 am 02:35 Clear 70 21.3 69 20.8 97 97 ENE 5 7 29.85 1011 10 16.09344 0 0
2:55 am 02:55 Clear 71 21.5 69 20.8 96 96 SSE 5 7 29.88 1012 10 16.09344 0 0
3:15 am 03:15 Clear 71 21.5 69 20.8 96 96 S 6 9 29.91 1013 10 16.09344 0 0
3:35 am 03:35 Partly Cloudy with Light Rain 70 21.2 69 20.8 98 98 Calm 29.88 1012 10 16.09344 0 0
3:55 am 03:55 Partly Cloudy with Light Drizzle 70 21 69 20.8 99 99 Calm 29.91 1013 7 11.265408 0 0
4:15 am 04:15 Partly Cloudy with Light Rain 70 21 69 20.8 99 99 Calm 29.91 1013 5 8.04672 0 0
4:35 am 04:35 Mostly Cloudy with Mist and Fog 69 20.7 69 20.7 100 100 Calm 29.91 1013 4 6.437376 0 0
4:55 am 04:55 Partly Cloudy 71 21.5 68 20.2 92 92 S 5 7 29.88 1012 10 16.09344 0 0
5:15 am 05:15 Clear 70 21.1 68 20 93 93 SSW 5 7 29.88 1012 10 16.09344 0 0
5:35 am 05:35 Partly Cloudy 69 20.8 68 20 95 95 Calm 29.88 1012 10 16.09344 0 0
5:55 am 05:55 Partly Cloudy 68 20.2 68 20 99 99 E 3 6 29.88 1012 10 16.09344 0 0
6:15 am 06:15 Clear 68 20 67 19.7 98 98 Calm 29.88 1012 10 16.09344 0 0
6:35 am 06:35 Clear 67 19.5 67 19.5 100 100 Calm 29.91 1013 7 11.265408 0 0
6:55 am 06:55 Sunny 67 19.3 66 19 98 98 Calm 29.91 1013 7 11.265408 0 0
7:15 am 07:15 Sunny 66 18.9 66 18.7 99 99 E 5 7 29.91 1013 7 11.265408 0 0
7:35 am 07:35 Partly Cloudy 67 19.4 67 19.2 99 99 Calm 29.94 1014 10 16.09344 0 0
7:55 am 07:55 Mostly Cloudy 69 20.3 68 20.1 99 99 Calm 29.91 1013 10 16.09344 0 0
8:15 am 08:15 Partly Cloudy 71 21.7 69 20.4 92 92 E 3 6 29.91 1013 10 16.09344 0 0
8:35 am 08:35 Partly Cloudy 72 22.1 69 20.5 91 91 Calm 29.91 1013 10 16.09344 0 0
8:55 am 08:55 Mostly Cloudy 73 22.6 69 20.7 89 89 ESE 3 6 29.91 1013 10 16.09344 0 0
9:15 am 09:15 Partly Cloudy 73 22.8 69 20.7 88 88 E 3 6 29.91 1013 10 16.09344 0 0
9:35 am 09:35 Partly Cloudy 75 23.7 70 21 85 85 E 3 6 29.88 1012 10 16.09344 0 0
9:55 am 09:55 Mostly Cloudy 76 24.2 70 21.1 83 83 Calm 29.88 1012 10 16.09344 0 0
10:15 am 10:15 Partly Cloudy 77 24.8 70 21.3 81 81 Calm 29.88 1012 10 16.09344 0 0
10:35 am 10:35 Partly Cloudy 77 25.1 70 21.3 80 80 ENE 5 7 29.88 1012 10 16.09344 0 0
10:55 am 10:55 Partly Cloudy 79 25.9 71 21.7 78 78 E 6 9 29.88 1012 10 16.09344 0 0
11:15 am 11:15 Partly Cloudy 79 26.2 72 22.1 78 78 ESE 7 11 29.91 1013 10 16.09344 0 0
11:35 am 11:35 Partly Cloudy 81 27 72 22.1 75 75 E 6 9 29.91 1013 10 16.09344 0 0
11:55 am 11:55 Mostly Cloudy 82 27.5 72 22 72 72 ESE 7 11 29.88 1012 10 16.09344 0 0
12:15 pm 12:15 Mostly Cloudy 81 27.1 71 21.9 73 73 ESE 8 13 29.91 1013 10 16.09344 0 0
12:35 pm 12:35 Mostly Cloudy 84 29.1 72 22.3 67 67 SSE 13 20 29.88 1012 10 16.09344 0 0
12:55 pm 12:55 Mostly Cloudy 82 27.9 71 21.7 69 69 SE 14 22 29.88 1012 10 16.09344 0 0
1:15 pm 13:15 Cloudy 85 29.4 70 20.9 60 60 SSE 13 20 29.85 1011 10 16.09344 0 0
1:35 pm 13:35 Partly Cloudy 85 29.7 68 20.1 56 56 SE 13 20 29.85 1011 10 16.09344 0 0
1:55 pm 13:55 Partly Cloudy 85 29.5 68 20.1 57 57 SSE 14 22 29.85 1011 10 16.09344 0 0
2:15 pm 14:15 Partly Cloudy 86 29.9 68 20.2 56 56 SSE 17 28 29.85 1011 10 16.09344 0 0
2:35 pm 14:35 Mostly Cloudy 82 27.8 67 19.4 60 60 SSE 14 22 29.85 1011 10 16.09344 0 0
2:55 pm 14:55 Partly Cloudy 82 27.6 67 19.6 62 62 SSE 12 19 29.85 1011 10 16.09344 0 0
3:15 pm 15:15 Sunny 82 28 67 19.6 60 60 SSE 13 20 29.85 1011 10 16.09344 0 0
3:35 pm 15:35 Sunny with Nearby Thunderstorms 83 28.3 68 20 61 61 SE 15 24 29.83 1010 10 16.09344 0 0
3:55 pm 15:55 Sunny 83 28.3 69 20.4 62 62 SE 15 24 29.83 1010 10 16.09344 0 0
4:15 pm 16:15 Sunny 82 28 69 20.7 65 65 SSE 13 20 29.83 1010 10 16.09344 0 0
4:35 pm 16:35 Partly Cloudy with Light Rain 80 26.8 69 20.6 69 69 SSE 10 17 29.83 1010 10 16.09344 0 0
4:55 pm 16:55 Partly Cloudy 80 26.6 69 20.6 70 70 SE 8 13 29.88 1012 10 16.09344 0 0
5:15 pm 17:15 Sunny with Nearby Thunderstorms 80 26.7 69 20.7 70 70 ESE 3 6 29.88 1012 10 16.09344 0 0
5:35 pm 17:35 Partly Cloudy 79 26.2 70 21.1 74 74 ESE 3 6 29.88 1012 10 16.09344 0 0
5:55 pm 17:55 Partly Cloudy 76 24.7 71 21.7 83 83 Calm 29.88 1012 10 16.09344 0 0
6:15 pm 18:15 Mostly Cloudy 76 24.6 72 22.1 86 86 Calm 29.88 1012 10 16.09344 0 0
6:35 pm 18:35 Cloudy with Light Rain 75 23.8 71 21.5 87 87 SSW 3 6 29.88 1012 7 11.265408 0 0
6:55 pm 18:55 Cloudy with Rain 73 23 70 21.3 90 90 SW 8 13 29.91 1013 7 11.265408 0.03 0.762
7:15 pm 19:15 Cloudy with Light Rain 74 23.1 71 21.7 92 92 Calm 29.91 1013 10 16.09344 0 0
7:35 pm 19:35 Mostly Cloudy with Light Rain 74 23.2 72 22.3 95 95 S 7 11 29.85 1011 10 16.09344 0.01 0.254
7:55 pm 19:55 Mostly Cloudy with Light Rain 73 22.9 72 22.3 96 96 N 7 11 29.88 1012 10 16.09344 0.01 0.254
8:15 pm 20:15 Partly Cloudy 74 23.5 72 22.3 93 93 Calm 29.88 1012 10 16.09344 0 0
8:35 pm 20:35 Sunny 73 22.6 72 22.1 97 97 Calm 29.91 1013 7 11.265408 0 0
8:55 pm 20:55 Clear 72 22.2 72 22 99 99 NNE 3 6 29.91 1013 7 11.265408 0 0
9:15 pm 21:15 Clear 72 22.2 72 22.1 99 99 Calm 29.91 1013 7 11.265408 0 0
9:35 pm 21:35 Clear 72 22.3 72 22.2 99 99 ESE 3 6 29.91 1013 7 11.265408 0 0
9:55 pm 21:55 Clear 73 22.5 72 22.3 99 99 S 3 6 29.91 1013 7 11.265408 0 0
10:15 pm 22:15 Clear with Mist and Fog 73 22.5 72 22.2 98 98 Calm 29.94 1014 5 8.04672 0 0
10:35 pm 22:35 Clear with Light Rain 72 22 72 22 100 100 N 5 7 29.91 1013 4 6.437376 0 0
10:55 pm 22:55 Partly Cloudy with Light Rain 72 22 72 22 100 100 W 3 6 29.91 1013 4 6.437376 0 0
11:15 pm 23:15 Clear with Mist and Fog 71 21.8 71 21.8 100 100 Calm 29.91 1013 4 6.437376 0 0
11:35 pm 23:35 Clear with Mist and Fog 71 21.9 71 21.9 100 100 Calm 29.94 1014 4 6.437376 0 0
11:55 pm 23:55 Clear with Mist and Fog 71 21.7 71 21.7 100 100 Calm 29.94 1014 4 6.437376 0 0

Powered by AerisWeather